TimeSAST,TemperatureF,Dew PointF,Humidity,Sea Level PressureIn,VisibilityMPH,Wind Direction,Wind SpeedMPH,Gust SpeedMPH,PrecipitationIn,Events,Conditions,WindDirDegrees,DateUTC
12:00 AM,59.0,46.4,63,29.98,-9999.0,West,4.6,-,N/A,,Clear,280,2012-11-18 22:00:00
1:00 AM,59.0,48.2,67,29.98,-9999.0,WSW,5.8,-,N/A,,Clear,240,2012-11-18 23:00:00
2:00 AM,57,51,74,29.97,6,SW,5.8,,,,,230,2012-11-19 00:00:00
2:00 AM,55.4,50.0,82,29.95,-9999.0,WNW,5.8,-,N/A,,Clear,290,2012-11-19 00:00:00
3:00 AM,55.4,48.2,77,29.95,-9999.0,North,3.5,-,N/A,,Clear,10,2012-11-19 01:00:00
4:00 AM,57.2,46.4,67,29.95,-9999.0,WNW,4.6,-,N/A,,Clear,300,2012-11-19 02:00:00
5:00 AM,53,47,73,29.97,12,West,5.8,,,,,280,2012-11-19 03:00:00
5:00 AM,53.6,46.4,77,29.95,-9999.0,West,5.8,-,N/A,,Clear,280,2012-11-19 03:00:00
6:00 AM,55.4,48.2,77,29.98,6.2,NNW,3.5,-,N/A,,Partly Cloudy,330,2012-11-19 04:00:00
7:00 AM,59.0,51.8,77,29.98,6.2,West,6.9,-,N/A,,Partly Cloudy,270,2012-11-19 05:00:00
8:00 AM,63,57,75,30.01,12,West,6.9,,,,Scattered Clouds,280,2012-11-19 06:00:00
8:00 AM,62.6,57.2,82,30.01,6.2,West,6.9,-,N/A,,Partly Cloudy,280,2012-11-19 06:00:00
9:00 AM,66.2,55.4,68,30.01,6.2,SW,9.2,-,N/A,,Partly Cloudy,220,2012-11-19 07:00:00
10:00 AM,68.0,57.2,68,29.98,6.2,South,5.8,-,N/A,,Partly Cloudy,190,2012-11-19 08:00:00
11:00 AM,70,58,57,29.98,12,SSE,3.5,,,,Scattered Clouds,160,2012-11-19 09:00:00
11:00 AM,69.8,57.2,64,29.98,6.2,Variable,4.6,-,N/A,,Partly Cloudy,0,2012-11-19 09:00:00
12:00 PM,69.8,59.0,68,29.95,6.2,South,12.7,-,N/A,,Partly Cloudy,190,2012-11-19 10:00:00
1:00 PM,69.8,57.2,64,29.95,6.2,South,6.9,-,N/A,,Partly Cloudy,190,2012-11-19 11:00:00
2:00 PM,70,59,59,29.94,12,SSE,9.2,,,,Scattered Clouds,160,2012-11-19 12:00:00
2:00 PM,69.8,59.0,68,29.95,6.2,South,6.9,-,N/A,,Partly Cloudy,180,2012-11-19 12:00:00
3:00 PM,71.6,59.0,64,29.92,-9999.0,SSE,5.8,-,N/A,,Clear,160,2012-11-19 13:00:00
4:00 PM,69.8,57.2,64,29.92,-9999.0,SSE,9.2,-,N/A,,Clear,160,2012-11-19 14:00:00
5:00 PM,67,57,63,29.94,12,SSE,8.1,,,,Scattered Clouds,160,2012-11-19 15:00:00
5:00 PM,68.0,57.2,68,29.95,6.2,South,6.9,-,N/A,,Partly Cloudy,180,2012-11-19 15:00:00
6:00 PM,68.0,55.4,64,29.95,-9999.0,Variable,2.3,-,N/A,,Clear,0,2012-11-19 16:00:00
7:00 PM,66.2,55.4,68,29.95,6.2,SW,4.6,-,N/A,,Partly Cloudy,220,2012-11-19 17:00:00
8:00 PM,62,58,81,29.97,12,SW,4.6,,,,Scattered Clouds,230,2012-11-19 18:00:00
8:00 PM,62.6,57.2,82,29.98,6.2,SW,4.6,-,N/A,,Partly Cloudy,230,2012-11-19 18:00:00
9:00 PM,62.6,57.2,82,29.98,6.2,West,2.3,-,N/A,,Partly Cloudy,280,2012-11-19 19:00:00
10:00 PM,59.0,55.4,88,29.98,-9999.0,NNE,4.6,-,N/A,,Clear,30,2012-11-19 20:00:00
11:00 PM,59.0,53.6,82,29.95,-9999.0,NNE,3.5,-,N/A,,Clear,20,2012-11-19 21:00:00